Location: Lane
(33.5226°N, 79.8788°W)
Time: 02:35:09
(UTC+00:00)

Tiros 1 despin weight - Pass Details

Date: 10 October 2022
Orbit: 590 x 637 km, 48.2° (Epoch: 30 November)

Event Time Altitude Azimuth Distance (km) Brightness Sun altitude
Rises 16:41:31 0° 208° (SSW) 2,800 ? 49.2°
Reaches altitude 10° 16:43:56 10° 199° (SSW) 1,903 ? 49.3°
Maximum altitude 16:47:52 34° 134° (SE) 982 ? 49.4°
Drops below altitude 10° 16:51:51 10° 70° (ENE) 1,924 ? 49.5°
Sets 16:54:18 0° 61° (ENE) 2,834 ? 49.6°
